This is the latest recevied weather packets stored in our database for station/object N5YHM-13. If no packets are shown the sender has not sent any weather packets the latest 10 day(s).
| Time | Temp. | Humidity | Pressure | Rain* | Wind** | Luminosity | Snow |
|---|---|---|---|---|---|---|---|
| 1778084570 | 26.67° C | 92% | 1016 hPa | 0 mm | - | 19 W/m² | - |
| 1778084262 | 26.11° C | 92% | 1015.9 hPa | 0 mm | - | 21 W/m² | - |
| 1778083958 | 26.11° C | 93% | 1015.7 hPa | 0 mm | - | 14 W/m² | - |
| 1778083651 | 26.11° C | 93% | 1015.7 hPa | 0 mm | - | 14 W/m² | - |
| 1778083347 | 26.11° C | 93% | 1015.7 hPa | 0 mm | - | 17 W/m² | - |
| 1778083046 | 25.56° C | 93% | 1015.6 hPa | 0 mm | - | 16 W/m² | - |
| 1778082742 | 25.56° C | 93% | 1015.7 hPa | 0 mm | - | 15 W/m² | - |
| 1778081609 | 25.56° C | 95% | 1015.5 hPa | 0 mm | - | 6 W/m² | - |
| 1778081306 | 25.56° C | 95% | 1015.6 hPa | 0 mm | - | 9 W/m² | - |
| 1778081003 | 25.56° C | 94% | 1015.6 hPa | 0 mm | - | 10 W/m² | - |
| 1778080702 | 25.56° C | 94% | 1015.4 hPa | 0 mm | - | 10 W/m² | - |
| 1778080398 | 25.56° C | 94% | 1015 hPa | 0 mm | - | 6 W/m² | - |
| 1778080095 | 25.56° C | 94% | 1015.4 hPa | 0 mm | - | 10 W/m² | - |
| 1778079792 | 25° C | 94% | 1015.3 hPa | 0 mm | - | 10 W/m² | - |
| 1778079489 | 25° C | 94% | 1015.4 hPa | 0 mm | - | 8 W/m² | - |
| 1778079185 | 25° C | 95% | 1015.3 hPa | 0 mm | - | 15 W/m² | - |
| 1778078883 | 25° C | 95% | 1015.4 hPa | 0 mm | - | 15 W/m² | - |
| 1778078580 | 25° C | 96% | 1015.4 hPa | 0 mm | - | 12 W/m² | - |
| 1778078278 | 24.44° C | 96% | 1015.1 hPa | 0 mm | - | 9 W/m² | - |
| 1778077975 | 24.44° C | 96% | 1015.4 hPa | 0 mm | - | 6 W/m² | - |
| 1778077673 | 24.44° C | 96% | 1015.4 hPa | 0 mm | - | 7 W/m² | - |
| 1778077371 | 24.44° C | 96% | 1015.1 hPa | 0 mm | - | 7 W/m² | - |
| 1778077069 | 24.44° C | 96% | 1015.1 hPa | 0 mm | - | 7 W/m² | - |
| 1778076767 | 24.44° C | 96% | 1015.1 hPa | 0 mm | - | 5 W/m² | - |
| 1778076464 | 24.44° C | 96% | 1015.2 hPa | 0 mm | - | 4 W/m² | - |
* Rain latest hour (hover to see other rain measurements)
** Current wind speed in m/s (hover to see current wind gust speed)